[[{"header":{"parameterUnit":"m.s-1","parameterCategory":1,"la1":30.2991,"la2":30.254,"lo1":-89.0895,"lo2":-89.0444,"dy":0.0017,"dx":0.0017,"nx":28,"ny":28,"refTime":"2024-06-17T21:00:00:Z","depth":0,"parameterNumber":2,"parameterNumberName":"U-component_of_WINDS"},"data":[0,0,0,0,0,0,0,0,0,0,0,0,0,0,0,0,0,0,0,0,0,0,0,0,0,0,0,0,0,0,0,0,0,0,0,0,0,0,0,0,0,0,0,0,0,0,0,0,0,0,0,0,0,0,0,0,0,0,-8.9486,-8.9487,0,-8.9586,-8.9587,-8.9588,-8.9397,-8.9391,-8.9384,-8.9378,-8.9482,-8.9491,-8.9499,0,0,0,0,0,0,0,0,0,0,0,0,0,-8.913,-8.9138,-8.9486,-8.9487,-8.9488,-8.9586,-8.9587,-8.9588,-8.9398,-8.939,-8.9383,-8.9376,-8.9479,-8.9489,-8.95,0,0,0,0,0,0,0,0,0,0,0,0,0,-8.9263,-8.914,-8.9485,-8.9405,-8.9399,-8.9585,-8.9587,-8.9589,-8.94,-8.939,-8.9381,-8.9372,-8.9476,-8.9488,-8.9501,-8.9771,0,0,-8.9541,-8.9547,0,0,0,0,0,0,0,0,-8.9256,-8.9277,-8.9415,-8.9411,-8.9404,-8.9469,-8.9499,-8.965,-8.9402,-8.94,-8.9378,-8.9367,-8.9486,-8.9497,-8.9537,-8.9776,-8.978,-8.9542,-8.955,-8.9556,-8.9559,0,0,0,0,0,0,0,-8.9247,-8.9271,-8.9525,-8.9418,-8.9411,-8.9364,-8.9372,-8.9527,-8.9495,-8.9399,-8.9385,-8.94,-8.9481,-8.9525,-8.9538,-8.9782,-8.9542,-8.9553,-8.9561,-8.9566,-9.0249,-9.0258,0,0,0,0,0,0,-8.9248,-8.9265,-8.9522,-8.9528,-8.9305,-8.9378,-8.9388,-8.9458,-8.9492,-8.9488,-8.9408,-8.939,-8.9507,-8.9523,-8.9541,-8.9859,-8.9555,-8.9568,-8.9575,-9.0238,-9.0251,-9.0262,0,0,0,0,0,0,-8.9241,-8.9273,-8.9518,-8.9393,-8.942,-8.9394,-8.9475,-8.9465,-8.9509,-8.9499,-8.9492,-8.9459,-8.95,-8.9522,-8.9715,-8.986,-8.9573,-8.9585,-9.0226,-9.0242,-9.0256,-9.0499,0,0,0,0,0,0,-8.9232,-8.9271,-8.9373,-8.9397,-8.9428,-8.9691,-8.9484,-8.9474,-8.9531,-8.951,-8.9545,-8.9542,-8.9495,-8.9697,-8.9728,-8.9873,-8.9595,-9.0213,-9.0233,-9.0251,-9.0478,-9.0521,-9.0557,0,0,0,0,0,-8.9219,-8.9437,-8.9379,-8.9411,-8.9555,-8.97,-8.9718,-8.9659,-8.9544,-8.9646,-8.964,-8.9541,-8.984,-8.9718,-8.9752,-8.9903,-9.0204,-9.0227,-9.025,-9.046,-9.0512,-9.0556,0,0,0,0,0,0,-8.9432,-8.9439,-8.9375,-8.9606,-8.9654,-8.9667,-8.9795,-8.9716,-8.9797,-8.9774,-8.9697,-8.9707,-8.9916,-8.9928,-8.9793,-9.0166,-9.0002,-9.0033,-9.015,-9.02,-9.0239,-9.0231,-8.9606,0,0,0,0,0,-8.9505,-8.9623,-8.9622,-8.9827,-8.9854,-8.9822,-8.9882,-8.9833,-8.9879,-8.9898,-8.9906,-8.9955,-9.006,-9.013,-9.0226,-9.0479,-9.0484,-9.0599,-9.0639,-9.0672,-9.0699,-9.0834,-9.0886,-9.0338,-9.0338,-9.0338,0,0,-8.9659,-8.9677,-8.9756,-8.987,-8.9901,-9.0025,-8.9839,-8.9977,-9.0068,-8.9919,-9.0102,-9.011,-9.0159,-9.0384,-9.0483,-9.0401,-9.0852,-9.0701,-9.0727,-9.0737,-9.0864,-9.0916,-9.0962,-9.0354,-9.0351,-9.0349,0,0,-9.0002,-9.0028,-9.0201,-9.0236,-9.0286,-9.0262,-9.0304,-9.033,-9.033,-9.0512,-9.0403,-9.051,-9.0692,-9.0732,-9.0777,-9.1137,-9.1048,-9.117,-9.1378,-9.1511,-9.1554,-9.1592,-9.172,-9.1768,-9.1198,-9.1198,-9.1199,0,-9.0186,-9.0367,-9.03,-9.0446,-9.05,-9.0371,-9.0547,-9.0584,-9.0663,-9.0703,-9.061,-9.0836,-9.0861,-9.1093,-9.1181,-9.1221,-9.1267,-9.1165,-9.1553,-9.159,-9.1625,-9.1747,-9.1795,-9.1213,-9.1211,-9.121,-9.1208,0,-9.0592,-9.072,-9.0854,-9.0933,-9.1002,-9.1163,-9.112,-9.1198,-9.1144,-9.1131,-9.1318,-9.1343,-9.1442,-9.1494,-9.1442,-9.172,-9.1667,-9.1565,-9.1399,-9.1692,-9.1806,-9.1852,-9.1234,-9.1228,-9.1224,-9.1221,0,0,-9.107,-9.1111,-9.1162,-9.1196,-9.1242,-9.134,-9.1495,-9.1591,-9.166,-9.1719,-9.1847,-9.2005,-9.1911,-9.1962,-9.1913,-9.203,-9.2314,-9.1913,-9.1913,-9.1987,-9.2623,-9.2699,-9.2754,-9.2256,-9.2265,-9.2272,-9.2618,0,-9.141,-9.1676,-9.1621,-9.1882,-9.2,-9.188,-9.2015,-9.2058,-9.2051,-9.2149,-9.214,-9.2254,-9.2121,-9.2151,-9.2261,-9.2257,-9.2441,-9.2231,-9.2375,-9.2381,-9.2366,-9.2813,-9.2894,-9.322,-9.2662,-9.267,-9.2675,0,-9.1842,-9.1918,-9.2191,-9.2219,-9.2266,-9.2388,-9.2473,-9.2569,-9.2616,-9.2602,-9.266,-9.2589,-9.2744,-9.2577,-9.2789,-9.2647,-9.2703,-9.271,-9.2721,-9.2732,-9.2546,-9.2836,-9.3322,-9.3372,-9.2744,-9.2739,-9.2734,0,-9.2164,-9.2334,-9.2519,-9.2553,-9.259,-9.2679,-9.2699,-9.2736,-9.2798,-9.2873,-9.2912,-9.3004,-9.3055,-9.3128,-9.3084,-9.2967,-9.3305,-9.3133,-9.3298,-9.33,-9.3374,-9.337,-9.3876,-9.3412,-9.3411,-9.341,-9.3409,0,-9.2549,-9.2721,-9.2664,-9.2779,-9.2968,-9.2904,-9.3093,-9.3098,-9.3133,-9.3247,-9.3149,-9.3258,-9.3194,-9.3298,-9.3265,-9.3447,-9.347,-9.3464,-9.3453,-9.3472,-9.3473,-9.3508,-9.3484,-9.3423,-9.342,-9.3417,-9.3415,0,-9.294,-9.2909,-9.3103,-9.3123,-9.3132,-9.3271,-9.3287,-9.3394,-9.3379,-9.3525,-9.3555,-9.3533,-9.365,-9.3614,-9.3742,-9.3719,-9.3949,-9.3909,-9.3934,-9.3924,-9.409,-9.4075,-9.4636,-9.4706,-9.4197,-9.4202,-9.4206,0,-9.3187,-9.3317,-9.3351,-9.342,-9.3447,-9.3559,-9.3622,-9.3564,-9.3634,-9.3698,-9.3798,-9.3907,-9.399,-9.4185,-9.418,-9.4277,-9.4239,-9.4429,-9.4252,-9.4268,-9.4242,-9.4234,-9.4247,-9.4464,-9.4469,-9.4474,-9.4478,0,-9.363,-9.3609,-9.3703,-9.3794,-9.3872,-9.394,-9.3999,-9.4062,-9.4007,-9.4091,-9.421,-9.4276,-9.4405,-9.4515,-9.4604,-9.4624,-9.4544,-9.4534,-9.4577,-9.4598,-9.4607,-9.4604,-9.4029,-9.4521,-9.4517,-9.4514,-9.4511,-9.4509,-9.3957,-9.4067,-9.4108,-9.4217,-9.4255,-9.4313,-9.4415,-9.4413,-9.4512,-9.4612,-9.4573,-9.471,-9.4754,-9.4865,-9.4897,-9.5004,-9.4931,-9.4994,-9.501,-9.5026,-9.5047,-9.459,-9.502,-9.5019,-9.5018,-9.5017,-9.5016,0,-9.4395,-9.4415,-9.4516,-9.4603,-9.4689,-9.4605,-9.4667,-9.4744,-9.4866,-9.4915,-9.5,-9.5137,-9.5244,-9.5248,-9.5348,-9.5433,-9.5398,-9.5461,-9.5454,-9.546,-9.5107,-9.5059,-9.5487,-9.5487,-9.5487,-9.5487,-9.5487,-9.5487,-9.4632,-9.4814,-9.4798,-9.4998,-9.5017,-9.5151,-9.5193,-9.5247,-9.5285,-9.5443,-9.5531,-9.5533,-9.5564,-9.5665,-9.576,-9.5758,-9.58,-9.5877,-9.5862,-9.5531,-9.5485,-9.544,-9.5395,-9.5886,-9.5887,-9.6205,-9.6208,-9.6211]},{"header":{"parameterUnit":"m.s-1","parameterCategory":1,"la1":30.2991,"la2":30.254,"lo1":-89.0895,"lo2":-89.0444,"dy":0.0017,"dx":0.0017,"nx":28,"ny":28,"refTime":"2024-06-17T21:00:00:Z","depth":0,"parameterNumber":3,"parameterNumberName":"V-component_of_WINDS"},"data":[0,0,0,0,0,0,0,0,0,0,0,0,0,0,0,0,0,0,0,0,0,0,0,0,0,0,0,0,0,0,0,0,0,0,0,0,0,0,0,0,0,0,0,0,0,0,0,0,0,0,0,0,0,0,0,0,0,0,0.3248,0.3249,0,0.3379,0.338,0.3382,0.3417,0.3416,0.3416,0.3415,0.3549,0.3553,0.3557,0,0,0,0,0,0,0,0,0,0,0,0,0,0.3031,0.3035,0.3248,0.325,0.3251,0.3379,0.338,0.3382,0.3417,0.3416,0.3415,0.3415,0.3547,0.3552,0.3558,0,0,0,0,0,0,0,0,0,0,0,0,0,0.314,0.3036,0.3248,0.3284,0.3289,0.3378,0.338,0.3383,0.3418,0.3416,0.3415,0.3414,0.3546,0.3552,0.3558,0.3621,0,0,0.3578,0.3581,0,0,0,0,0,0,0,0,0.3134,0.3148,0.3277,0.3282,0.3287,0.3381,0.3353,0.3463,0.3418,0.3369,0.3415,0.3414,0.3494,0.3504,0.3531,0.3627,0.3633,0.3579,0.3582,0.3585,0.3587,0,0,0,0,0,0,0,0.3126,0.3142,0.33,0.3279,0.3285,0.3295,0.3309,0.3374,0.3436,0.3373,0.3376,0.3391,0.3496,0.3525,0.3535,0.3635,0.3578,0.3584,0.3588,0.359,0.3793,0.3794,0,0,0,0,0,0,0.3112,0.3136,0.3296,0.3304,0.3206,0.33,0.3315,0.3352,0.3435,0.3447,0.3392,0.3392,0.3515,0.3527,0.354,0.3622,0.3585,0.3591,0.3595,0.3792,0.3793,0.3795,0,0,0,0,0,0,0.3107,0.3126,0.329,0.3221,0.3242,0.3305,0.3345,0.3355,0.3384,0.345,0.3461,0.341,0.3514,0.3531,0.3601,0.3627,0.3594,0.36,0.379,0.3792,0.3794,0.3784,0,0,0,0,0,0,0.3101,0.3124,0.3148,0.3221,0.3246,0.3349,0.3346,0.3358,0.3395,0.3396,0.3469,0.348,0.3515,0.3592,0.3608,0.3635,0.3605,0.3788,0.3791,0.3793,0.3782,0.3785,0.3788,0,0,0,0,0,0.3093,0.3138,0.3149,0.3168,0.3277,0.335,0.3365,0.3403,0.3396,0.3422,0.3465,0.3478,0.3621,0.3599,0.3617,0.3646,0.3786,0.379,0.3793,0.3781,0.3785,0.3788,0,0,0,0,0,0,0.3065,0.3149,0.3161,0.3231,0.3284,0.3356,0.3389,0.3405,0.3461,0.346,0.3505,0.3522,0.359,0.3625,0.3599,0.3713,0.3704,0.3711,0.3688,0.3692,0.3695,0.3686,0.361,0,0,0,0,0,0.3068,0.312,0.319,0.3245,0.3271,0.3325,0.3359,0.3384,0.344,0.3463,0.351,0.3565,0.3622,0.3659,0.3715,0.3787,0.3805,0.3817,0.382,0.3822,0.3828,0.3872,0.3879,0.3806,0.3806,0.3806,0,0,0.3072,0.3125,0.3155,0.3241,0.3285,0.334,0.3344,0.34,0.3442,0.3471,0.3542,0.3579,0.3643,0.3715,0.375,0.3747,0.3852,0.3826,0.3827,0.3833,0.3876,0.3883,0.3889,0.3809,0.3808,0.3808,0,0,0.311,0.3153,0.3206,0.325,0.3317,0.3353,0.3366,0.3437,0.3463,0.3535,0.3559,0.3609,0.3706,0.3752,0.3788,0.3846,0.3862,0.3863,0.388,0.3922,0.3928,0.3933,0.3957,0.3965,0.3869,0.3869,0.3869,0,0.3108,0.3191,0.3231,0.3288,0.3327,0.3357,0.3412,0.3453,0.3534,0.3561,0.3556,0.3681,0.3726,0.3811,0.3826,0.3853,0.3871,0.3856,0.3924,0.3929,0.3935,0.3958,0.3967,0.3869,0.3869,0.3869,0.3869,0,0.3186,0.3243,0.3278,0.3358,0.34,0.3455,0.3506,0.3544,0.3567,0.3604,0.3678,0.3733,0.3803,0.3825,0.3846,0.3915,0.3911,0.3914,0.3906,0.3941,0.3964,0.3973,0.3869,0.3869,0.3869,0.3869,0,0,0.3208,0.3312,0.3324,0.3362,0.3439,0.3485,0.3543,0.3612,0.3645,0.3701,0.3752,0.3835,0.384,0.3881,0.3908,0.3945,0.3992,0.3945,0.3947,0.3954,0.4074,0.4073,0.4082,0.4003,0.4005,0.4006,0.407,0,0.3257,0.3362,0.3402,0.3488,0.3544,0.3575,0.3626,0.3679,0.3716,0.377,0.381,0.387,0.387,0.3895,0.3933,0.3978,0.4017,0.3974,0.4053,0.4055,0.4038,0.4094,0.4092,0.4149,0.4079,0.408,0.4081,0,0.3328,0.3386,0.3479,0.3553,0.3577,0.3622,0.3691,0.374,0.3803,0.3827,0.3875,0.39,0.3964,0.3952,0.4042,0.4012,0.4046,0.4074,0.4077,0.4087,0.4071,0.4108,0.4168,0.4177,0.4095,0.4094,0.4093,0,0.3339,0.344,0.3509,0.3541,0.3627,0.3659,0.3697,0.3758,0.3799,0.3858,0.3885,0.3951,0.3988,0.4039,0.4083,0.4069,0.417,0.416,0.4194,0.4193,0.4215,0.4213,0.4284,0.4234,0.4234,0.4233,0.4233,0,0.339,0.3446,0.3516,0.3559,0.3623,0.3669,0.3732,0.3772,0.3827,0.3879,0.3909,0.3958,0.4012,0.4068,0.4102,0.4174,0.4189,0.4212,0.4221,0.4211,0.4208,0.4235,0.4233,0.4236,0.4235,0.4235,0.4234,0,0.3413,0.3462,0.354,0.3617,0.3638,0.3682,0.3749,0.3792,0.3831,0.3898,0.3916,0.3977,0.4045,0.4094,0.4181,0.4204,0.4282,0.4289,0.4261,0.4266,0.4298,0.4296,0.4391,0.4407,0.4343,0.4344,0.4344,0,0.3443,0.3488,0.357,0.3608,0.3646,0.3706,0.3748,0.3795,0.3838,0.3914,0.3949,0.402,0.4078,0.4186,0.4239,0.4307,0.4317,0.4346,0.4328,0.4317,0.4321,0.4319,0.4325,0.4349,0.435,0.435,0.435,0,0.3493,0.3516,0.3575,0.3645,0.3694,0.375,0.3807,0.3836,0.3894,0.394,0.4011,0.4057,0.4147,0.4217,0.4291,0.4331,0.4352,0.4356,0.4368,0.4359,0.4342,0.4354,0.4271,0.4353,0.4353,0.4353,0.4353,0.4353,0.3523,0.3565,0.3631,0.3697,0.3745,0.3798,0.3844,0.389,0.395,0.4028,0.4052,0.4126,0.4191,0.4292,0.4333,0.4393,0.4391,0.4408,0.4412,0.4416,0.4418,0.4331,0.4406,0.4406,0.4406,0.4406,0.4406,0,0.3577,0.3622,0.3682,0.3762,0.3814,0.3829,0.3894,0.3937,0.4002,0.406,0.4119,0.4201,0.4271,0.433,0.4402,0.4439,0.445,0.4456,0.4455,0.4465,0.4413,0.4397,0.4446,0.4446,0.4446,0.4446,0.4446,0.4446,0.3612,0.3685,0.3716,0.3815,0.3859,0.3932,0.3968,0.4018,0.4066,0.4157,0.4215,0.4254,0.4314,0.4391,0.4456,0.4472,0.4499,0.4503,0.4521,0.4472,0.4468,0.4463,0.4448,0.4508,0.4508,0.4568,0.4569,0.4569]}]]